• In Österreich
  • Länderverzeichnis
  • Für 7 Tage
  • Wassertemperatur
  • Satellitenkarten
  • Wetterkarte
  • News
  • Widgets
  • user-avatar
    Anmelden

    Stündliche Wetter Zielomysl

    Heute, 22 Juni, Freitag

    Zeit Temperatur Niederschläge Wind Luftdruck Luftfeuchtigkeit
    00:00 +10°C° 0 mm 5 m/S 755 mmHg 67%
    01:00 +10°C° 0 mm 3 m/S 755 mmHg 72%
    02:00 +10°C° 0 mm 4 m/S 755 mmHg 73%
    03:00 +10°C° 0 mm 4 m/S 755 mmHg 74%
    04:00 +8°C° 0 mm 5 m/S 755 mmHg 75%
    05:00 +9°C° 0 mm 5 m/S 755 mmHg 72%
    06:00 +10°C° 0 mm 6 m/S 755 mmHg 69%
    07:00 +11°C° 0 mm 6 m/S 755 mmHg 66%
    08:00 +11°C° 0 mm 6 m/S 756 mmHg 65%
    09:00 +11°C° 0 mm 6 m/S 756 mmHg 64%
    10:00 +13°C° 0 mm 6 m/S 756 mmHg 64%
    11:00 +14°C° 0,2 mm 5 m/S 756 mmHg 60%
    12:00 +15°C° 0,2 mm 5 m/S 756 mmHg 55%
    13:00 +17°C° 0,2 mm 5 m/S 756 mmHg 51%
    14:00 +17°C° 0,3 mm 5 m/S 756 mmHg 52%
    15:00 +17°C° 0,3 mm 5 m/S 755 mmHg 53%
    16:00 +17°C° 0,3 mm 5 m/S 755 mmHg 54%
    17:00 +18°C° 0,1 mm 4 m/S 755 mmHg 57%
    18:00 +17°C° 0,1 mm 3 m/S 756 mmHg 60%
    19:00 +17°C° 0,1 mm 3 m/S 756 mmHg 64%
    20:00 +14°C° 0 mm 3 m/S 756 mmHg 69%
    21:00 +13°C° 0 mm 3 m/S 756 mmHg 74%
    22:00 +12°C° 0 mm 3 m/S 756 mmHg 80%
    23:00 +11°C° 0 mm 3 m/S 756 mmHg 80%

    Morgen, 23 Juni, Samstag

    Zeit Temperatur Niederschläge Wind Luftdruck Luftfeuchtigkeit
    00:00 +11°C° 0 mm 4 m/S 756 mmHg 81%
    01:00 +11°C° 0 mm 4 m/S 756 mmHg 81%
    02:00 +11°C° 0,1 mm 4 m/S 756 mmHg 82%
    03:00 +10°C° 0,1 mm 5 m/S 756 mmHg 82%
    04:00 +10°C° 0,1 mm 5 m/S 756 mmHg 83%
    05:00 +10°C° 0,1 mm 5 m/S 756 mmHg 79%
    06:00 +10°C° 0,1 mm 6 m/S 756 mmHg 76%
    07:00 +10°C° 0,1 mm 6 m/S 757 mmHg 72%
    08:00 +11°C° 0 mm 6 m/S 757 mmHg 70%
    09:00 +13°C° 0 mm 6 m/S 757 mmHg 68%
    10:00 +13°C° 0 mm 6 m/S 757 mmHg 66%
    11:00 +14°C° 0 mm 6 m/S 757 mmHg 65%
    12:00 +14°C° 0 mm 6 m/S 756 mmHg 65%
    13:00 +15°C° 0 mm 5 m/S 756 mmHg 65%
    14:00 +15°C° 0,3 mm 5 m/S 756 mmHg 66%
    15:00 +16°C° 0,3 mm 5 m/S 756 mmHg 67%
    16:00 +16°C° 0,3 mm 5 m/S 756 mmHg 69%
    17:00 +15°C° 0,4 mm 5 m/S 756 mmHg 73%
    18:00 +15°C° 0,4 mm 4 m/S 756 mmHg 77%
    19:00 +14°C° 0,4 mm 4 m/S 756 mmHg 82%
    20:00 +13°C° 0,1 mm 4 m/S 756 mmHg 84%
    21:00 +13°C° 0,1 mm 4 m/S 757 mmHg 87%
    22:00 +12°C° 0,1 mm 4 m/S 757 mmHg 89%
    23:00 +11°C° 0 mm 4 m/S 757 mmHg 91%

    übermorgen, 24 Juni, Sonntag

    Zeit Temperatur Niederschläge Wind Luftdruck Luftfeuchtigkeit
    00:00 +11°C° 0 mm 3 m/S 757 mmHg 93%
    01:00 +11°C° 0 mm 3 m/S 757 mmHg 95%
    02:00 +10°C° 0 mm 3 m/S 757 mmHg 96%
    03:00 +10°C° 0 mm 3 m/S 757 mmHg 97%
    04:00 +10°C° 0 mm 3 m/S 757 mmHg 98%
    05:00 +11°C° 0 mm 3 m/S 757 mmHg 95%
    06:00 +11°C° 0 mm 3 m/S 757 mmHg 93%
    07:00 +12°C° 0 mm 4 m/S 757 mmHg 91%
    08:00 +14°C° 0,1 mm 4 m/S 757 mmHg 84%
    09:00 +15°C° 0,1 mm 4 m/S 757 mmHg 77%
    10:00 +18°C° 0,1 mm 4 m/S 757 mmHg 70%
    11:00 +18°C° 0,5 mm 4 m/S 757 mmHg 68%
    12:00 +19°C° 0,5 mm 5 m/S 757 mmHg 65%
    13:00 +20°C° 0,5 mm 5 m/S 757 mmHg 63%
    14:00 +20°C° 0,6 mm 5 m/S 757 mmHg 63%
    15:00 +20°C° 0,6 mm 5 m/S 757 mmHg 63%
    16:00 +20°C° 0,6 mm 5 m/S 757 mmHg 64%
    17:00 +19°C° 0,4 mm 4 m/S 757 mmHg 68%
    18:00 +18°C° 0,4 mm 4 m/S 757 mmHg 72%
    19:00 +17°C° 0,4 mm 3 m/S 757 mmHg 77%
    20:00 +16°C° 0,1 mm 3 m/S 757 mmHg 82%
    21:00 +14°C° 0,1 mm 3 m/S 758 mmHg 87%
    22:00 +12°C° 0,1 mm 3 m/S 758 mmHg 92%
    23:00 +13°C° 0 mm 2 m/S 758 mmHg 93%

    25 Juni, Montag

    Zeit Temperatur Niederschläge Wind Luftdruck Luftfeuchtigkeit
    00:00 +13°C° 0 mm 2 m/S 758 mmHg 95%
    01:00 +12°C° 0 mm 2 m/S 758 mmHg 96%
    02:00 +12°C° 0 mm 2 m/S 758 mmHg 97%
    03:00 +12°C° 0 mm 2 m/S 758 mmHg 97%
    04:00 +10°C° 0 mm 2 m/S 758 mmHg 97%
    05:00 +13°C° 0 mm 2 m/S 759 mmHg 93%
    06:00 +14°C° 0 mm 2 m/S 759 mmHg 88%
    07:00 +16°C° 0 mm 2 m/S 759 mmHg 83%
    08:00 +18°C° 0 mm 2 m/S 759 mmHg 75%
    09:00 +19°C° 0 mm 2 m/S 759 mmHg 67%
    10:00 +21°C° 0 mm 3 m/S 759 mmHg 58%
    11:00 +22°C° 0 mm 3 m/S 759 mmHg 54%
    12:00 +22°C° 0 mm 3 m/S 759 mmHg 51%
    13:00 +24°C° 0 mm 3 m/S 759 mmHg 47%
    14:00 +24°C° 0 mm 3 m/S 759 mmHg 48%
    15:00 +24°C° 0 mm 3 m/S 759 mmHg 49%
    16:00 +24°C° 0 mm 3 m/S 759 mmHg 49%
    17:00 +22°C° 0 mm 3 m/S 760 mmHg 54%
    18:00 +21°C° 0 mm 2 m/S 760 mmHg 59%
    19:00 +21°C° 0 mm 2 m/S 760 mmHg 64%
    20:00 +19°C° 0 mm 2 m/S 760 mmHg 70%
    21:00 +18°C° 0 mm 1 m/S 760 mmHg 75%
    22:00 +16°C° 0 mm 1 m/S 761 mmHg 81%
    23:00 +15°C° 0 mm 1 m/S 761 mmHg 83%

    26 Juni, Dienstag

    Zeit Temperatur Niederschläge Wind Luftdruck Luftfeuchtigkeit
    00:00 +15°C° 0 mm 1 m/S 761 mmHg 85%
    01:00 +14°C° 0 mm 1 m/S 761 mmHg 88%
    02:00 +14°C° 0 mm 1 m/S 761 mmHg 88%
    03:00 +14°C° 0 mm 1 m/S 761 mmHg 89%
    04:00 +14°C° 0 mm 1 m/S 761 mmHg 89%
    05:00 +15°C° 0 mm 1 m/S 761 mmHg 83%
    06:00 +18°C° 0 mm 1 m/S 761 mmHg 77%
    07:00 +20°C° 0 mm 1 m/S 761 mmHg 72%
    08:00 +21°C° 0 mm 1 m/S 761 mmHg 66%
    09:00 +21°C° 0 mm 2 m/S 761 mmHg 61%
    10:00 +24°C° 0 mm 2 m/S 761 mmHg 55%
    11:00 +25°C° 0 mm 2 m/S 761 mmHg 51%
    12:00 +26°C° 0 mm 2 m/S 761 mmHg 48%
    13:00 +27°C° 0 mm 2 m/S 761 mmHg 44%
    14:00 +27°C° 0 mm 2 m/S 761 mmHg 46%
    15:00 +27°C° 0 mm 3 m/S 761 mmHg 47%
    16:00 +27°C° 0 mm 3 m/S 760 mmHg 49%
    17:00 +26°C° 0 mm 3 m/S 760 mmHg 53%
    18:00 +25°C° 0 mm 2 m/S 761 mmHg 56%
    19:00 +24°C° 0 mm 2 m/S 761 mmHg 60%
    20:00 +21°C° 0 mm 2 m/S 761 mmHg 64%
    21:00 +20°C° 0 mm 2 m/S 761 mmHg 68%
    22:00 +18°C° 0 mm 2 m/S 761 mmHg 72%
    23:00 +18°C° 0 mm 2 m/S 761 mmHg 76%

    27 Juni, Mittwoch

    Zeit Temperatur Niederschläge Wind Luftdruck Luftfeuchtigkeit
    00:00 +17°C° 0 mm 2 m/S 762 mmHg 79%
    01:00 +16°C° 0 mm 2 m/S 762 mmHg 83%
    02:00 +15°C° 0 mm 2 m/S 762 mmHg 84%
    03:00 +15°C° 0 mm 2 m/S 762 mmHg 85%
    04:00 +15°C° 0 mm 2 m/S 762 mmHg 86%
    05:00 +16°C° 0 mm 2 m/S 762 mmHg 77%
    06:00 +18°C° 0 mm 2 m/S 762 mmHg 68%
    07:00 +20°C° 0 mm 2 m/S 762 mmHg 59%
    08:00 +23°C° 0 mm 2 m/S 762 mmHg 53%
    09:00 +25°C° 0 mm 2 m/S 762 mmHg 47%
    10:00 +27°C° 0 mm 2 m/S 762 mmHg 40%
    11:00 +27°C° 0 mm 3 m/S 762 mmHg 41%
    12:00 +27°C° 0 mm 3 m/S 762 mmHg 42%
    13:00 +28°C° 0 mm 3 m/S 761 mmHg 42%
    14:00 +28°C° 0 mm 3 m/S 761 mmHg 42%
    15:00 +28°C° 0 mm 3 m/S 761 mmHg 42%
    16:00 +28°C° 0 mm 4 m/S 761 mmHg 42%
    17:00 +27°C° 0 mm 4 m/S 761 mmHg 45%
    18:00 +26°C° 0 mm 4 m/S 761 mmHg 47%
    19:00 +25°C° 0 mm 3 m/S 761 mmHg 49%
    20:00 +22°C° 0 mm 3 m/S 761 mmHg 52%
    21:00 +20°C° 0 mm 3 m/S 762 mmHg 55%
    22:00 +18°C° 0 mm 3 m/S 762 mmHg 58%
    23:00 +17°C° 0 mm 3 m/S 762 mmHg 63%
    Mehr zeigen